Find Starlink 11534

NORAD ID: 62555 Int'l Des: 2025-006 Owner: SPXS Country: US Constellation: starlink operational
LEOCIRCULAR

实时位置

正在加载3D地球...

关于 Starlink 11534

正在加载描述...

即将过境

Passes for default location (London). Set your location on the main map for personalized predictions.

高度历史

Loading altitude history...

两行轨道根数

1 62555U 25006B 26123.48593963 .00179402 00000-0 13694-2 0 9995
2 62555 43.0030 169.3143 0001376 277.8976 82.1736 15.70879265 75228
Epoch: May 3, 2026 • Age: 34 hours

当前状态

高度 355.0 km
速度 7.70 km/s
星下点 24.00°N, 5.67°E
发射日期 Jan 10, 2025
运行时间 1.3 years
类型 internet

技术详情

分类 Payload
质量 960.00 kg
干质量 910.00 kg
总质量 960.00 kg
长度 0.30 m
直径 4.10 m
跨度 29.00 m
形状 Box + pan
制造商 SPXS
平台类型 Starlink V2MD
阶段状态 In Orbit
所有者/国家 SPXS/US

Most Searched